Location: Mentone
(34.5413°N, 85.5351°W)
Time: 05:18:17
(UTC-06:00)

Amateur Radio Satellites - All Passes

Search period start: 27 February 2017 04:48
Search period end: 28 February 2017 04:48
Location: Mentone, 34.5413°N, 85.5351°W

Satellite Date Start Highest point End Downlink Frequencies (MHz)
Time Altitude Azimuth
XW-2C 27 Feb 04:50:36 04:52:04 12° 93° (E) 04:53:33 145.795 - 145.815
DOVE 4 27 Feb 04:54:35 04:58:19 22° 95° (E) 05:02:11 437.250
NUDT-PHONESAT 27 Feb 04:56:01 04:56:54 11° 92° (E) 04:57:48 437.300
BEESAT 2 27 Feb 05:06:57 05:10:28 32° 113° (ESE) 05:14:02 435.950
LilacSat-2 27 Feb 05:08:12 05:11:12 22° 96° (E) 05:14:10 437.200
ISS 27 Feb 05:12:42 05:14:28 14° 127° (SE) 05:16:14 437.550
CUTE-I 27 Feb 05:26:38 05:31:34 36° 98° (E) 05:36:27 437.470
Tancredo 1 27 Feb 05:32:24 05:35:06 24° 130° (SE) 05:37:48 437.200
STRAND 1 27 Feb 05:35:37 05:40:02 30° 69° (ENE) 05:44:28 437.568
SO-50 27 Feb 05:36:46 05:40:23 24° 52° (NE) 05:44:00 436.795
KAITUO 1B 27 Feb 05:54:48 05:58:33 74° 101° (ESE) 06:02:16 145.475/437.950
BEESAT 3 27 Feb 06:02:31 06:05:29 20° 307° (NW) 06:08:29 437.485
XW-2F 27 Feb 06:02:54 06:06:42 69° 283° (WNW) 06:10:26 145.980 - 146.000
XW-2D 27 Feb 06:08:52 06:12:35 53° 284° (WNW) 06:16:16 145.860 - 145.880
XW-2B 27 Feb 06:14:01 06:17:41 47° 285° (WNW) 06:21:18 145.730 - 145.750
CUTE 1.7 + AOD 2 27 Feb 06:17:27 06:19:51 15° 93° (E) 06:22:13 437.475
XW-2C 27 Feb 06:22:53 06:26:23 35° 286° (WNW) 06:29:51 145.795 - 145.815
NUDT-PHONESAT 27 Feb 06:27:29 06:30:59 37° 286° (WNW) 06:34:26 437.300
DOVE 4 27 Feb 06:31:37 06:35:58 35° 287° (WNW) 06:40:32 437.250
LilacSat-2 27 Feb 06:42:30 06:45:20 20° 290° (WNW) 06:48:07 437.200
BEESAT 2 27 Feb 06:45:32 06:48:18 18° 309° (NW) 06:51:05 435.950
ISS 27 Feb 06:47:28 06:50:37 43° 321° (NW) 06:53:48 437.550
AAUSAT CUBESAT 2 27 Feb 06:54:51 06:56:18 12° 92° (E) 06:57:45 437.432
HO-68 27 Feb 06:55:35 07:02:29 49° 101° (E) 07:09:20 435.675
CUBEBUG 2 27 Feb 06:56:03 06:59:35 21° 94° (E) 07:03:04 437.445
CUTE-I 27 Feb 07:07:04 07:11:22 25° 293° (WNW) 07:15:38 437.470
XW-2A 27 Feb 07:08:02 07:11:29 68° 282° (WNW) 07:14:54 145.665 - 145.685
Tancredo 1 27 Feb 07:08:30 07:11:17 25° 325° (NW) 07:14:05 437.200
SEEDS 27 Feb 07:09:32 07:13:28 40° 99° (E) 07:17:23 437.485
STRAND 1 27 Feb 07:14:49 07:19:07 27° 264° (W) 07:23:28 437.568
SO-50 27 Feb 07:16:54 07:20:49 31° 248° (WSW) 07:24:44 436.795
UWE-3 27 Feb 07:28:42 07:32:43 28° 96° (E) 07:36:38 435.000/436.395/437.385
ZACube-1 27 Feb 07:45:14 07:48:57 24° 95° (E) 07:52:34 437.345
CUTE 1.7 + AOD 2 27 Feb 07:51:55 07:55:46 35° 287° (WNW) 07:59:35 437.475
PRISM 27 Feb 07:52:36 07:56:07 29° 72° (ENE) 07:59:39 437.425
O/OREOS (USA 219) 27 Feb 07:55:30 08:00:07 76° 70° (ENE) 08:04:42 437.305
FO-29 27 Feb 08:00:14 08:04:02 15° 57° (ENE) 08:07:58 435.910
YUBILEINY 27 Feb 08:05:47 08:10:22 15° 79° (E) 08:14:57 435.215
AAUSAT CUBESAT 2 27 Feb 08:28:03 08:31:56 42° 286° (WNW) 08:35:48 437.432
AO-73 27 Feb 08:31:48 08:36:21 80° 102° (ESE) 08:40:45 145.935
CUBEBUG 2 27 Feb 08:31:57 08:36:12 33° 288° (WNW) 08:40:23 437.445
Oscar 11 27 Feb 08:35:51 08:40:11 77° 102° (ESE) 08:44:28 .
TIGRISAT 27 Feb 08:40:22 08:44:32 39° 72° (ENE) 08:48:49 435.000
UNISAT 6 27 Feb 08:40:39 08:44:53 43° 73° (ENE) 08:49:15 437.425
HO-68 27 Feb 08:43:59 08:49:48 28° 296° (WNW) 08:55:38 435.675
SEEDS 27 Feb 08:46:44 08:48:45 13° 293° (WNW) 08:50:46 437.485
UWE-3 27 Feb 09:05:19 09:08:59 23° 291° (WNW) 09:12:34 435.000/436.395/437.385
ZACube-1 27 Feb 09:21:23 09:25:05 25° 290° (WNW) 09:28:44 437.345
PRISM 27 Feb 09:28:43 09:31:25 17° 265° (W) 09:34:07 437.425
NANOSAT C BR1 27 Feb 09:32:48 09:33:36 10° 65° (ENE) 09:34:24 145.865
POLYITAN 1 27 Feb 09:34:20 09:36:09 13° 66° (ENE) 09:37:58 437.675
QB50P2 27 Feb 09:36:49 09:39:10 15° 67° (ENE) 09:41:30 145.880/145.840
FO-29 27 Feb 09:40:39 09:47:43 83° 75° (ENE) 09:55:30 435.910
DELFI C3 27 Feb 09:41:31 09:45:21 53° 285° (WNW) 09:49:10 145.870
AIST 2D 27 Feb 09:44:34 09:47:26 23° 72° (ENE) 09:50:19 435.315
LO-87 27 Feb 09:46:23 09:48:26 14° 94° (E) 09:50:28 145.935 - 145.965
YUBILEINY 27 Feb 09:57:04 10:05:54 87° 275° (W) 10:14:45 435.215
TIGRISAT 27 Feb 10:18:35 10:21:21 16° 267° (W) 10:24:09 435.000
UNISAT 6 27 Feb 10:19:17 10:21:47 15° 268° (W) 10:24:19 437.425
DUCHIFAT 1 27 Feb 10:35:38 10:39:44 56° 75° (ENE) 10:43:53 145.980
EO-79 27 Feb 10:48:59 10:53:11 81° 256° (WSW) 10:57:27 145.935-145.965
ESTCUBE 1 27 Feb 10:54:37 10:59:00 53° 100° (E) 11:03:22 437.505/2401.250
SPROUT 27 Feb 11:02:52 11:05:24 15° 94° (E) 11:07:55 437.525
NANOSAT C BR1 27 Feb 11:04:38 11:08:46 56° 260° (W) 11:12:56 145.865
POLYITAN 1 27 Feb 11:07:24 11:11:28 46° 261° (W) 11:15:35 437.675
QB50P2 27 Feb 11:10:37 11:14:34 39° 261° (W) 11:18:34 145.880/145.840
VELOX 1 27 Feb 11:10:48 11:14:23 24° 96° (E) 11:17:57 145.980
AIST 2D 27 Feb 11:18:25 11:20:36 16° 266° (W) 11:22:49 435.315
LO-87 27 Feb 11:18:50 11:21:52 26° 288° (WNW) 11:24:55 145.935 - 145.965
AO-85 27 Feb 11:20:14 11:22:11 13° 49° (NE) 11:24:10 145.980
Oscar 19 27 Feb 11:23:19 11:26:59 20° 67° (ENE) 11:30:39 437.125/150
BUGSAT 1 27 Feb 11:23:36 11:27:36 67° 76° (ENE) 11:31:42 437.445
FO-29 27 Feb 11:29:32 11:33:34 16° 272° (W) 11:37:48 435.910
50 SAT 27 Feb 11:37:42 11:40:46 29° 98° (E) 11:43:50 437.505
YUBILEINY 27 Feb 11:59:19 12:03:54 15° 294° (WNW) 12:08:30 435.215
Gurwin Techsat 1B 27 Feb 12:25:02 12:30:04 45° 72° (ENE) 12:35:06 435.225
DX 1 27 Feb 12:30:19 12:34:42 86° 103° (ESE) 12:39:03 434.975-435.025
ESTCUBE 1 27 Feb 12:33:32 12:35:18 12° 295° (WNW) 12:37:04 437.505/2401.250
SPROUT 27 Feb 12:37:26 12:41:24 37° 287° (WNW) 12:45:20 437.525
UKube-1 27 Feb 12:37:47 12:42:05 74° 102° (ESE) 12:46:24 .
VELOX 1 27 Feb 12:47:07 12:50:43 25° 290° (WNW) 12:54:20 145.980
AO-85 27 Feb 12:59:02 13:02:46 44° 245° (WSW) 13:06:37 145.980
Oscar 19 27 Feb 13:01:06 13:05:57 41° 261° (W) 13:10:49 437.125/150
50 SAT 27 Feb 13:12:13 13:13:35 12° 291° (WNW) 13:14:55 437.505
ISS 27 Feb 13:17:57 13:21:04 38° 38° (NE) 13:24:09 437.550
ITUPSAT 1 27 Feb 13:36:24 13:39:46 19° 95° (E) 13:43:06 437.325
AO-7 27 Feb 13:36:39 13:44:21 43° 65° (ENE) 13:52:04 .
Tancredo 1 27 Feb 13:37:41 13:40:53 68° 42° (NE) 13:44:04 437.200
ITAMSAT 1 27 Feb 13:39:53 13:44:43 40° 71° (ENE) 13:49:35 435.822/435.867
BEESAT 27 Feb 13:41:07 13:44:47 22° 95° (E) 13:48:26 436.000
PCSat 27 Feb 13:53:24 13:56:59 18° 105° (ESE) 14:00:36 145.827
Gurwin Techsat 1B 27 Feb 14:06:30 14:10:09 19° 266° (W) 14:13:50 435.225
BEESAT 3 27 Feb 14:21:18 14:25:19 74° 61° (ENE) 14:29:18 437.485
NO-84 27 Feb 14:51:30 14:54:18 35° 127° (SE) 14:57:18 435.350 FM
ISS 27 Feb 14:55:14 14:57:16 15° 232° (SW) 14:59:17 437.550
BEESAT 2 27 Feb 15:04:54 15:08:58 90° 72° (ENE) 15:12:59 435.950
ITUPSAT 1 27 Feb 15:13:15 15:17:39 37° 289° (WNW) 15:22:01 437.325
MOZHAYETS 4 27 Feb 15:17:10 15:21:47 89° 276° (W) 15:26:20
BEESAT 27 Feb 15:18:19 15:22:33 32° 289° (WNW) 15:26:44 436.000
ITAMSAT 1 27 Feb 15:20:31 15:24:16 20° 265° (W) 15:28:04 435.822/435.867
AO-7 27 Feb 15:29:28 15:37:03 38° 260° (W) 15:44:41 .
KKS-1 27 Feb 15:30:45 15:34:35 28° 97° (E) 15:38:25 437.445
PCSat 27 Feb 15:34:42 15:39:55 50° 300° (WNW) 15:45:12 145.827
RS-15 27 Feb 15:46:49 15:58:08 55° 110° (ESE) 16:09:54 29.354- 29.394
STARS 27 Feb 15:58:03 16:01:38 24° 96° (E) 16:05:13 437.465
DOVE 4 27 Feb 15:59:04 16:00:33 12° 66° (ENE) 16:02:01 437.250
CUBESAT XI-V 27 Feb 16:23:07 16:27:42 70° 101° (ESE) 16:32:16 437.345
NO-84 27 Feb 16:29:59 16:32:05 16° 325° (NW) 16:34:19 435.350 FM
KAITUO 1B 27 Feb 16:32:02 16:34:51 20° 71° (ENE) 16:37:41 145.475/437.950
XW-2F 27 Feb 16:40:22 16:43:45 31° 73° (ENE) 16:47:10 145.980 - 146.000
CUTE-I 27 Feb 16:44:55 16:49:53 42° 71° (ENE) 16:54:54 437.470
XW-2D 27 Feb 16:46:21 16:49:57 39° 74° (ENE) 16:53:34 145.860 - 145.880
XW-2B 27 Feb 16:51:23 16:55:03 44° 75° (ENE) 16:58:44 145.730 - 145.750
XW-2C 27 Feb 17:00:00 17:03:47 60° 77° (ENE) 17:07:36 145.795 - 145.815
NUDT-PHONESAT 27 Feb 17:02:54 17:06:32 51° 76° (ENE) 17:10:13 437.300
KKS-1 27 Feb 17:07:29 17:10:57 23° 291° (WNW) 17:14:26 437.445
M-CUBED/EXP-1 PRIME 27 Feb 17:09:29 17:13:25 69° 106° (ESE) 17:17:39 437.505
LilacSat-2 27 Feb 17:19:32 17:23:23 69° 259° (W) 17:27:16 437.200
HO-68 27 Feb 17:21:21 17:27:02 26° 63° (ENE) 17:32:41 435.675
DOVE 4 27 Feb 17:33:51 17:37:48 44° 261° (W) 17:41:48 437.250
STARS 27 Feb 17:34:14 17:37:52 25° 290° (WNW) 17:41:30 437.465
XW-2A 27 Feb 17:36:40 17:39:12 20° 71° (ENE) 17:41:44 145.665 - 145.685
STRAND 1 27 Feb 17:51:11 17:53:30 13° 92° (E) 17:55:48 437.568
CUBEBUG 2 27 Feb 17:52:39 17:53:59 11° 64° (ENE) 17:55:21 437.445
SEEDS 27 Feb 17:58:24 18:01:22 19° 69° (ENE) 18:04:20 437.485
RS-15 27 Feb 17:59:42 18:10:53 44° 311° (NW) 18:22:31 29.354- 29.394
KAITUO 1B 27 Feb 18:05:46 18:08:43 22° 264° (W) 18:11:43 145.475/437.950
XW-2F 27 Feb 18:15:51 18:17:56 14° 266° (W) 18:20:02 145.980 - 146.000
UWE-3 27 Feb 18:23:07 18:25:47 16° 67° (ENE) 18:28:28 435.000/436.395/437.385
XW-2D 27 Feb 18:23:12 18:24:17 11° 268° (W) 18:25:22 145.860 - 145.880
CUTE-I 27 Feb 18:26:10 18:30:03 20° 266° (W) 18:33:58 437.470
ZACube-1 27 Feb 18:38:46 18:40:57 13° 66° (ENE) 18:43:08 437.345
CUTE 1.7 + AOD 2 27 Feb 18:40:09 18:44:26 84° 259° (WSW) 18:48:44 437.475
HO-68 27 Feb 19:07:19 19:14:17 54° 259° (W) 19:21:17 435.675
XW-2A 27 Feb 19:09:38 19:11:52 16° 265° (W) 19:14:07 145.665 - 145.685
AAUSAT CUBESAT 2 27 Feb 19:13:57 19:18:05 73° 77° (ENE) 19:22:13 437.432
AO-73 27 Feb 19:23:23 19:27:31 39° 73° (ENE) 19:31:44 145.935
CUBEBUG 2 27 Feb 19:25:36 19:29:57 60° 259° (W) 19:34:30 437.445
Oscar 11 27 Feb 19:26:59 19:30:58 36° 73° (ENE) 19:34:58 .
STRAND 1 27 Feb 19:27:55 19:33:00 60° 286° (WNW) 19:38:02 437.568
SEEDS 27 Feb 19:33:07 19:36:49 29° 263° (W) 19:40:32 437.485
SO-50 27 Feb 19:48:27 19:51:27 17° 109° (ESE) 19:54:25 436.795
JUGNU 27 Feb 19:49:34 19:53:06 16° 172° (S) 19:56:37 437.505
UWE-3 27 Feb 19:57:36 20:01:48 42° 262° (W) 20:06:08 435.000/436.395/437.385
YUBILEINY 27 Feb 20:12:10 20:20:12 39° 76° (ENE) 20:28:09 435.215
ZACube-1 27 Feb 20:12:25 20:16:42 49° 261° (W) 20:21:08 437.345
RS-15 27 Feb 20:21:26 20:28:06 16° 342° (NNW) 20:34:49 29.354- 29.394
DELFI C3 27 Feb 20:23:09 20:26:57 47° 75° (ENE) 20:30:46 145.870
O/OREOS (USA 219) 27 Feb 20:27:40 20:29:43 13° 99° (E) 20:31:47 437.305
TIGRISAT 27 Feb 20:37:45 20:39:08 11° 91° (E) 20:40:32 435.000
UNISAT 6 27 Feb 20:37:47 20:39:44 12° 92° (E) 20:41:41 437.425
SRMSAT 27 Feb 20:56:08 20:57:28 11° 164° (SSE) 20:58:49 437.500
FO-29 27 Feb 20:57:43 21:01:31 15° 87° (E) 21:05:07 435.910
AO-73 27 Feb 21:01:09 21:03:52 16° 267° (W) 21:06:37 145.935
Oscar 11 27 Feb 21:04:32 21:07:10 16° 266° (W) 21:09:50 .
PRISM 27 Feb 21:11:44 21:15:49 81° 102° (ESE) 21:19:55 437.425
SO-50 27 Feb 21:27:04 21:31:32 44° 303° (WNW) 21:35:59 436.795
NO-84 27 Feb 21:29:28 21:30:33 11° 30° (NNE) 21:31:37 435.350 FM
JUGNU 27 Feb 21:37:28 21:41:23 18° 182° (S) 21:45:18 437.505
ESTCUBE 1 27 Feb 21:50:43 21:54:43 32° 71° (ENE) 21:58:42 437.505/2401.250
LO-87 27 Feb 21:50:50 21:54:19 65° 77° (ENE) 21:57:50 145.935 - 145.965
O/OREOS (USA 219) 27 Feb 22:04:22 22:08:39 45° 293° (WNW) 22:12:58 437.305
VELOX 1 27 Feb 22:05:51 22:08:11 14° 67° (ENE) 22:10:32 145.980
YUBILEINY 27 Feb 22:09:02 22:16:51 39° 273° (W) 22:24:38 435.215
TIGRISAT 27 Feb 22:11:32 22:16:08 58° 286° (WNW) 22:20:40 435.000
UNISAT 6 27 Feb 22:12:09 22:16:42 52° 286° (WNW) 22:21:10 437.425
DUCHIFAT 1 27 Feb 22:25:17 22:26:47 12° 92° (E) 22:28:16 145.980
EO-79 27 Feb 22:37:49 22:41:05 21° 95° (E) 22:44:20 145.935-145.965
FO-29 27 Feb 22:39:56 22:47:25 81° 286° (WNW) 22:54:04 435.910
RS-15 27 Feb 22:41:06 22:48:19 17° 21° (NNE) 22:55:25 29.354- 29.394
SRMSAT 27 Feb 22:42:01 22:45:54 18° 174° (S) 22:49:47 437.500
AIST 2D 27 Feb 22:45:36 22:49:02 46° 99° (E) 22:52:25 435.315
NANOSAT C BR1 27 Feb 22:52:37 22:56:22 29° 97° (E) 23:00:03 145.865
POLYITAN 1 27 Feb 22:55:41 22:59:38 35° 98° (E) 23:03:32 437.675
QB50P2 27 Feb 22:58:41 23:02:45 41° 99° (E) 23:06:47 145.880/145.840
NO-84 27 Feb 23:04:46 23:08:53 61° 46° (NE) 23:13:12 435.350 FM
BUGSAT 1 27 Feb 23:10:25 23:12:27 13° 93° (E) 23:14:29 437.445
DX 1 27 Feb 23:22:12 23:26:19 45° 73° (ENE) 23:30:27 434.975-435.025
SPROUT 27 Feb 23:26:34 23:30:49 80° 258° (WSW) 23:35:06 437.525
JUGNU 27 Feb 23:26:55 23:29:40 13° 192° (SSW) 23:32:25 437.505
ESTCUBE 1 27 Feb 23:28:16 23:31:31 19° 265° (W) 23:34:46 437.505/2401.250
UKube-1 27 Feb 23:28:44 23:32:41 37° 72° (ENE) 23:36:39 .
VELOX 1 27 Feb 23:40:05 23:44:15 43° 261° (W) 23:48:25 145.980
50 SAT 27 Feb 23:40:39 23:44:03 52° 259° (W) 23:47:28 437.505
DUCHIFAT 1 27 Feb 23:58:34 00:02:39 46° 286° (WNW) 00:06:43 145.980
EO-79 28 Feb 00:13:11 00:16:46 26° 289° (WNW) 00:20:20 145.935-145.965
PCSat 28 Feb 00:25:50 00:31:14 61° 62° (ENE) 00:36:34 145.827
FO-29 28 Feb 00:27:46 00:31:03 14° 304° (WNW) 00:34:14 435.910
NANOSAT C BR1 28 Feb 00:28:46 00:31:50 20° 291° (WNW) 00:34:54 145.865
SRMSAT 28 Feb 00:30:21 00:34:23 19° 184° (S) 00:38:25 437.500
POLYITAN 1 28 Feb 00:32:21 00:35:06 17° 292° (WNW) 00:37:50 437.675
QB50P2 28 Feb 00:35:50 00:38:08 14° 293° (WNW) 00:40:26 145.880/145.840
ITUPSAT 1 28 Feb 00:40:24 00:43:15 16° 66° (ENE) 00:46:07 437.325
NO-84 28 Feb 00:43:53 00:46:15 14° 238° (WSW) 00:48:39 435.350 FM
BUGSAT 1 28 Feb 00:43:56 00:47:57 42° 287° (WNW) 00:51:57 437.445
BEESAT 28 Feb 00:44:38 00:47:50 18° 67° (ENE) 00:51:01 436.000
Gurwin Techsat 1B 28 Feb 00:45:21 00:49:33 24° 95° (E) 00:53:44 435.225
RS-15 28 Feb 00:53:15 01:05:04 49° 51° (NE) 01:16:20 29.354- 29.394
DX 1 28 Feb 01:00:54 01:02:41 12° 267° (W) 01:04:29 434.975-435.025
UKube-1 28 Feb 01:06:22 01:08:49 15° 266° (W) 01:11:15 .
Oscar 19 28 Feb 01:15:47 01:20:56 89° 277° (W) 01:26:03 437.125/150
AO-85 28 Feb 01:33:02 01:34:00 11° 109° (ESE) 01:34:58 145.980
AO-7 28 Feb 01:44:31 01:48:47 15° 92° (E) 01:53:02 .
ITAMSAT 1 28 Feb 01:57:06 02:00:46 19° 94° (E) 02:04:24 435.822/435.867
PCSat 28 Feb 02:11:10 02:14:01 15° 257° (WSW) 02:16:52 145.827
MOZHAYETS 4 28 Feb 02:15:07 02:19:39 56° 75° (ENE) 02:24:13
ITUPSAT 1 28 Feb 02:16:01 02:20:38 47° 260° (W) 02:25:18 437.325
SRMSAT 28 Feb 02:20:22 02:22:49 13° 194° (SSW) 02:25:18 437.500
BEESAT 28 Feb 02:20:44 02:25:14 41° 261° (W) 02:29:46 436.000
Gurwin Techsat 1B 28 Feb 02:24:41 02:29:31 36° 289° (WNW) 02:34:19 435.225
KKS-1 28 Feb 02:26:13 02:29:05 17° 67° (ENE) 02:31:58 437.445
STARS 28 Feb 02:52:26 02:54:45 14° 66° (ENE) 02:57:05 437.465
RS-15 28 Feb 03:06:07 03:17:28 48° 252° (WSW) 03:28:20 29.354- 29.394
AO-85 28 Feb 03:09:24 03:14:00 63° 299° (WNW) 03:18:16 145.980
CUBESAT XI-V 28 Feb 03:22:41 03:27:07 44° 74° (ENE) 03:31:31 437.345
AO-7 28 Feb 03:34:02 03:42:23 90° 310° (NW) 03:50:41 .
ITAMSAT 1 28 Feb 03:35:25 03:40:21 43° 289° (WNW) 03:45:15 435.822/435.867
M-CUBED/EXP-1 PRIME 28 Feb 03:53:14 03:56:19 39° 69° (ENE) 03:59:23 437.505
MOZHAYETS 4 28 Feb 03:55:35 03:57:05 11° 268° (W) 03:58:37
KKS-1 28 Feb 04:01:16 04:05:19 36° 261° (W) 04:09:25 437.445
BEESAT 3 28 Feb 04:08:17 04:11:35 27° 112° (ESE) 04:14:56 437.485
STARS 28 Feb 04:26:32 04:30:41 43° 260° (W) 04:34:52 437.465
Tancredo 1 28 Feb 04:39:08 04:39:55 11° 126° (SE) 04:40:42 437.200
